Terug naar catalogus

FENGYUN 1C DEB

ActiefSSO
NORAD 33738·DEBRIS·🇨🇳 China

Gelanceerd May 10, 1999 vanaf Taiyuan Satellite Launch Center

Loading…

Volgende Passages (komende 24 uur)

TLE

VersSource: Space-Track

Epoch: Sep 11, 2026, 22:30 UTC

1 33738U 99025DJB 26254.93812772  .00000625  00000-0  38983-3 0  9994
2 33738  99.1169 319.5467 0189757 349.0806 186.5190 14.00023868930580

Volg FENGYUN 1C DEB in realtime met AllMySat

Download on the App Store